Simultaneous Nadir Overpasses (SNOs) Predictions

Prediction of SNOs between FY3D and METOP-C Satellite Orbit:

Table of predicted SNOs for the next 14.0 days since TLE Epoch: 7/5/2025
Index Date (FY3D) Time (FY3D) Lat,Lon (FY3D) SZA (FY3D ) Date (METOP-C) Time (METOP-C) Lat,Lon (METOP-C) SZA (METOP-C ) Distance(km) Time Diff (sec)
1 07/14/2025 03:40:51 77.40, 127.34 55.68 07/14/2025 03:41:58 77.37, 130.17 55.69 68.65 67
2 07/14/2025 04:31:33 -77.29, -64.83 124.42 07/14/2025 04:32:43 -77.24, -63.10 124.45 43.02 70
3 07/14/2025 05:22:13 77.08, 103.41 55.39 07/14/2025 05:23:27 77.05, 103.45 55.36 3.84 74
4 07/14/2025 06:12:57 -77.06, -89.17 124.63 07/14/2025 06:14:09 -77.05, -89.24 124.64 2.33 72
5 07/14/2025 07:03:42 77.06, 78.13 55.38 07/14/2025 07:04:48 77.07, 78.21 55.40 2.47 66
6 07/14/2025 07:54:26 -77.04,-114.45 124.64 07/14/2025 07:55:30 -77.07,-114.48 124.61 3.87 64
7 07/14/2025 08:45:11 77.04, 52.85 55.37 07/14/2025 08:46:10 77.06, 52.79 55.39 2.18 59
8 07/14/2025 09:35:56 -77.06,-139.91 124.61 07/14/2025 09:36:52 -77.05,-139.90 124.61 0.75 56
9 07/14/2025 10:26:41 77.06, 27.38 55.40 07/14/2025 10:27:32 77.04, 27.37 55.38 2.85 51
10 07/14/2025 11:17:25 -77.04,-165.19 124.62 07/14/2025 11:18:14 -77.03,-165.32 124.62 3.16 49
11 07/14/2025 12:08:10 77.04, 2.11 55.39 07/14/2025 12:08:53 77.06, 2.14 55.42 2.39 43
12 07/14/2025 12:58:55 -77.06, 169.35 124.59 07/14/2025 12:59:35 -77.06, 169.45 124.59 2.53 40
13 07/14/2025 13:49:40 77.06, -23.36 55.42 07/14/2025 13:50:15 77.04, -23.28 55.41 2.94 35
14 07/14/2025 14:40:24 -77.04, 144.07 124.60 07/14/2025 14:40:57 -77.04, 144.03 124.60 0.94 33
15 07/14/2025 15:31:09 77.04, -48.64 55.42 07/14/2025 15:31:37 77.02, -48.70 55.40 2.50 28
16 07/14/2025 16:21:54 -77.06, 118.60 124.57 07/14/2025 16:22:19 -77.02, 118.61 124.60 4.23 25
17 07/14/2025 17:12:38 77.02, -73.92 55.41 07/14/2025 17:12:58 77.05, -73.94 55.44 3.18 20
18 07/14/2025 18:03:23 -77.04, 93.32 124.58 07/14/2025 18:03:40 -77.05, 93.38 124.57 1.58 17
19 07/14/2025 18:54:08 77.04, -99.38 55.44 07/14/2025 18:54:20 77.03, -99.35 55.43 1.50 12
20 07/14/2025 19:44:52 -77.02, 68.04 124.59 07/14/2025 19:45:02 -77.03, 67.96 124.58 2.40 10
21 07/14/2025 20:35:37 77.02,-124.66 55.43 07/14/2025 20:35:42 77.01,-124.77 55.42 3.02 5
22 07/14/2025 21:26:22 -77.04, 42.58 124.55 07/14/2025 21:26:24 -77.01, 42.54 124.58 3.46 2
23 07/14/2025 22:17:07 77.04,-150.12 55.46 07/14/2025 22:17:03 77.04,-150.01 55.45 2.95 4
24 07/14/2025 23:07:51 -77.02, 17.30 124.56 07/14/2025 23:07:45 -77.03, 17.31 124.55 1.77 6
25 07/14/2025 23:58:36 77.02,-175.40 55.45 07/14/2025 23:58:25 77.02,-175.43 55.45 0.78 11
26 07/15/2025 00:49:21 -77.04, -8.16 124.53 07/15/2025 00:49:07 -77.01, -8.11 124.56 2.98 14
27 07/15/2025 01:40:05 77.00, 159.32 55.44 07/15/2025 01:39:47 77.00, 159.16 55.44 4.08 18
28 07/15/2025 02:30:50 -77.02, -33.44 124.54 07/15/2025 02:30:29 -77.00, -33.53 124.56 3.25 21
29 07/15/2025 03:21:35 77.02, 133.85 55.47 07/15/2025 03:21:08 77.02, 133.92 55.47 1.60 27
30 07/15/2025 04:12:19 -77.00, -58.72 124.55 07/15/2025 04:11:50 -77.02, -58.77 124.53 2.88 29
31 07/15/2025 05:03:04 77.00, 108.57 55.46 07/15/2025 05:02:30 77.00, 108.50 55.47 1.90 34
32 07/15/2025 05:53:49 -77.02, -84.19 124.52 07/15/2025 05:53:12 -77.00, -84.18 124.54 1.80 37
33 07/15/2025 06:44:34 77.02, 83.11 55.50 07/15/2025 06:43:51 77.03, 83.26 55.50 3.87 43
34 07/15/2025 07:35:18 -77.00,-109.47 124.53 07/15/2025 07:34:33 -77.03,-109.42 124.50 3.49 45
35 07/15/2025 08:26:03 77.00, 57.83 55.49 07/15/2025 08:25:13 77.01, 57.85 55.49 1.04 50
36 07/15/2025 09:16:48 -77.02,-134.93 124.49 07/15/2025 09:15:55 -77.01,-134.84 124.51 2.59 53
37 07/15/2025 10:07:32 76.98, 32.55 55.48 07/15/2025 10:06:35 76.99, 32.43 55.49 3.35 57
38 07/15/2025 10:58:17 -77.00,-160.21 124.50 07/15/2025 10:57:17 -76.99,-160.25 124.52 1.45 60
39 07/15/2025 11:49:02 77.00, 7.09 55.51 07/15/2025 11:47:56 77.02, 7.19 55.52 3.00 66
40 07/15/2025 12:39:46 -76.98, 174.51 124.51 07/15/2025 12:38:38 -77.01, 174.51 124.48 4.19 68
41 07/15/2025 13:30:31 76.98, -18.19 55.50 07/15/2025 13:29:18 77.00, -18.23 55.51 2.05 73
42 07/15/2025 14:21:15 -76.95, 149.23 124.52 07/15/2025 14:20:01 -76.95, 148.91 124.53 7.98 74
43 07/15/2025 15:11:55 76.74, -42.57 55.29 07/15/2025 15:10:46 76.71, -44.70 55.23 54.55 69
44 07/15/2025 16:02:37 -76.63, 125.20 124.81 07/15/2025 16:01:30 -76.62, 122.28 124.86 74.95 67



Historial Predications of SNOs between FY3D and METOP-C
